[[{"header":{"parameterUnit":"m.s-1","parameterCategory":1,"la1":30.2991,"la2":30.254,"lo1":-89.0895,"lo2":-89.0444,"dy":0.0017,"dx":0.0017,"nx":28,"ny":28,"refTime":"2024-12-14T03:00:00:Z","depth":0,"parameterNumber":2,"parameterNumberName":"U-component_of_WINDS"},"data":[0,0,0,0,0,0,0,0,0,0,0,0,0,0,0,0,0,0,0,0,0,0,0,0,0,0,0,0,0,0,0,0,0,0,0,0,0,0,0,0,0,0,0,0,0,0,0,0,0,0,0,0,0,0,0,0,0,0,-5.6138,-5.6138,0,-5.615,-5.615,-5.615,-5.594,-5.5934,-5.5929,-5.5923,-5.5937,-5.5942,-5.5948,0,0,0,0,0,0,0,0,0,0,0,0,0,-5.5935,-5.594,-5.6138,-5.6138,-5.6138,-5.615,-5.615,-5.615,-5.5941,-5.5934,-5.5927,-5.5921,-5.5935,-5.5942,-5.5948,0,0,0,0,0,0,0,0,0,0,0,0,0,-5.5993,-5.5942,-5.6138,-5.6036,-5.6026,-5.615,-5.615,-5.615,-5.5943,-5.5934,-5.5926,-5.5918,-5.5933,-5.5941,-5.5949,-5.6172,0,0,-5.5975,-5.5979,0,0,0,0,0,0,0,0,-5.599,-5.6001,-5.605,-5.6043,-5.6033,-5.6035,-5.6083,-5.6158,-5.5945,-5.5975,-5.5923,-5.5913,-5.5976,-5.5981,-5.6002,-5.6172,-5.6173,-5.5976,-5.5981,-5.5985,-5.5987,0,0,0,0,0,0,0,-5.5986,-5.5999,-5.6143,-5.6051,-5.6041,-5.5989,-5.5988,-5.6096,-5.6023,-5.5971,-5.5956,-5.596,-5.597,-5.5994,-5.6,-5.6173,-5.5976,-5.5983,-5.5988,-5.5992,-5.6526,-5.6535,0,0,0,0,0,0,-5.5996,-5.5997,-5.6142,-5.6143,-5.599,-5.6,-5.5998,-5.6043,-5.6021,-5.601,-5.5968,-5.595,-5.5984,-5.5991,-5.6,-5.6259,-5.5985,-5.5993,-5.5997,-5.6517,-5.6528,-5.6538,0,0,0,0,0,0,-5.5993,-5.6011,-5.6142,-5.6066,-5.6079,-5.6012,-5.6064,-5.6048,-5.6071,-5.6018,-5.6004,-5.6006,-5.5977,-5.5988,-5.613,-5.6256,-5.5996,-5.6004,-5.6506,-5.652,-5.6533,-5.6778,0,0,0,0,0,0,-5.5988,-5.6011,-5.6095,-5.6069,-5.6083,-5.6273,-5.6072,-5.6054,-5.6086,-5.6064,-5.605,-5.604,-5.5971,-5.6119,-5.6139,-5.6263,-5.6011,-5.6495,-5.6513,-5.6529,-5.6759,-5.6799,-5.6833,0,0,0,0,0,-5.5981,-5.6164,-5.61,-5.6119,-5.6187,-5.628,-5.6288,-5.6205,-5.6097,-5.6181,-5.6147,-5.604,-5.6239,-5.6135,-5.6156,-5.6285,-5.6486,-5.6508,-5.6527,-5.6742,-5.6791,-5.6832,0,0,0,0,0,0,-5.6207,-5.6159,-5.6088,-5.6268,-5.628,-5.6245,-5.6348,-5.626,-5.6303,-5.6281,-5.6176,-5.6175,-5.6334,-5.6323,-5.6208,-5.6498,-5.6344,-5.6369,-5.65,-5.6546,-5.6582,-5.6582,-5.6018,0,0,0,0,0,-5.6277,-5.6357,-5.6311,-5.6474,-5.6484,-5.6416,-5.6453,-5.6388,-5.6396,-5.6401,-5.6377,-5.6389,-5.6454,-5.6499,-5.6556,-5.6756,-5.675,-5.6855,-5.6892,-5.6922,-5.6946,-5.705,-5.7096,-5.6605,-5.6605,-5.6605,0,0,-5.6424,-5.6408,-5.6465,-5.6519,-5.6521,-5.6606,-5.6421,-5.6519,-5.6581,-5.6415,-5.6548,-5.6531,-5.6538,-5.671,-5.6785,-5.6706,-5.708,-5.6949,-5.6974,-5.698,-5.7076,-5.7123,-5.7164,-5.6619,-5.6617,-5.6615,0,0,-5.6735,-5.6731,-5.6866,-5.6872,-5.6876,-5.6829,-5.6862,-5.6841,-5.6823,-5.6954,-5.6832,-5.6904,-5.7018,-5.7028,-5.7048,-5.7362,-5.7266,-5.7384,-5.7578,-5.7681,-5.772,-5.7754,-5.7866,-5.7907,-5.7407,-5.7408,-5.7408,0,-5.6918,-5.7041,-5.6947,-5.7053,-5.7081,-5.6934,-5.707,-5.708,-5.7104,-5.7126,-5.7037,-5.7177,-5.7171,-5.7343,-5.742,-5.7441,-5.7475,-5.7385,-5.7722,-5.7755,-5.7785,-5.7891,-5.7933,-5.7422,-5.7421,-5.7419,-5.7418,0,-5.7264,-5.7351,-5.746,-5.7486,-5.7525,-5.7646,-5.7572,-5.7623,-5.7554,-5.7517,-5.7653,-5.7641,-5.7692,-5.7728,-5.7662,-5.7891,-5.7842,-5.774,-5.7582,-5.7848,-5.7945,-5.7985,-5.7443,-5.7438,-5.7433,-5.743,0,0,-5.7718,-5.7691,-5.7732,-5.7742,-5.7736,-5.7801,-5.7915,-5.7965,-5.8011,-5.8032,-5.8125,-5.8225,-5.8129,-5.8153,-5.8086,-5.8177,-5.8427,-5.8062,-5.8061,-5.8131,-5.8678,-5.8756,-5.8804,-5.8363,-5.837,-5.8376,-5.8677,0,-5.8021,-5.8213,-5.8133,-5.8333,-5.8412,-5.8274,-5.8373,-5.838,-5.8349,-5.8411,-5.8375,-5.8448,-5.8316,-5.8329,-5.8413,-5.8379,-5.8535,-5.8356,-5.8448,-5.8453,-5.8451,-5.8855,-5.8937,-5.9223,-5.8715,-5.8721,-5.8726,0,-5.8399,-5.8435,-5.8644,-5.8623,-5.8653,-5.8744,-5.8783,-5.8844,-5.885,-5.882,-5.8846,-5.8759,-5.8869,-5.8713,-5.8863,-5.8743,-5.8776,-5.8765,-5.8774,-5.8779,-5.8606,-5.8872,-5.9312,-5.9355,-5.8785,-5.878,-5.8776,0,-5.8709,-5.881,-5.8947,-5.896,-5.894,-5.9007,-5.9001,-5.8998,-5.9033,-5.9067,-5.9088,-5.9136,-5.9162,-5.92,-5.9129,-5.9021,-5.929,-5.9127,-5.9268,-5.927,-5.9331,-5.9328,-5.9783,-5.9353,-5.9352,-5.9351,-5.9351,0,-5.9055,-5.9188,-5.9086,-5.9172,-5.9316,-5.9222,-5.9368,-5.9347,-5.9346,-5.9424,-5.9307,-5.9383,-5.9284,-5.935,-5.9295,-5.9428,-5.9441,-5.942,-5.9404,-5.9431,-5.9434,-5.9451,-5.9429,-5.9363,-5.936,-5.9358,-5.9356,0,-5.9427,-5.9364,-5.9504,-5.9473,-5.9469,-5.9577,-5.955,-5.9627,-5.9586,-5.9687,-5.9705,-5.9643,-5.9715,-5.9647,-5.9716,-5.9678,-5.9856,-5.9811,-5.9855,-5.9842,-5.9987,-5.9975,-6.0469,-6.0529,-6.0061,-6.0066,-6.007,0,-5.9651,-5.975,-5.973,-5.9774,-5.9775,-5.9848,-5.9883,-5.9794,-5.9835,-5.9848,-5.9924,-5.9986,-6.0031,-6.0153,-6.0113,-6.0165,-6.0121,-6.029,-6.0128,-6.0152,-6.0123,-6.0118,-6.0128,-6.0324,-6.0329,-6.0334,-6.0337,0,-6.0057,-6.0021,-6.0076,-6.0121,-6.0166,-6.0197,-6.0218,-6.0261,-6.0169,-6.0222,-6.0294,-6.0329,-6.0398,-6.0462,-6.0501,-6.0495,-6.0403,-6.0389,-6.0424,-6.0453,-6.0474,-6.0464,-5.9945,-6.0378,-6.0374,-6.0371,-6.0369,-6.0367,-6.0362,-6.0443,-6.0441,-6.0506,-6.0513,-6.0536,-6.0607,-6.0575,-6.0634,-6.0683,-6.0627,-6.0716,-6.0718,-6.0761,-6.0766,-6.0834,-6.0762,-6.0814,-6.0827,-6.0841,-6.0863,-6.0464,-6.0841,-6.084,-6.0838,-6.0837,-6.0836,0,-6.0761,-6.0753,-6.0814,-6.0848,-6.0899,-6.0806,-6.0825,-6.0874,-6.0953,-6.0963,-6.101,-6.1093,-6.1153,-6.1119,-6.1171,-6.1232,-6.119,-6.1248,-6.1243,-6.1243,-6.0923,-6.0887,-6.1281,-6.1281,-6.1281,-6.1281,-6.1281,-6.1281,-6.0975,-6.1108,-6.1072,-6.1207,-6.1197,-6.1282,-6.1301,-6.1322,-6.1329,-6.1427,-6.1477,-6.1453,-6.1445,-6.1496,-6.1547,-6.1535,-6.156,-6.1634,-6.1607,-6.1309,-6.1266,-6.1224,-6.119,-6.164,-6.1641,-6.1921,-6.1923,-6.1925]},{"header":{"parameterUnit":"m.s-1","parameterCategory":1,"la1":30.2991,"la2":30.254,"lo1":-89.0895,"lo2":-89.0444,"dy":0.0017,"dx":0.0017,"nx":28,"ny":28,"refTime":"2024-12-14T03:00:00:Z","depth":0,"parameterNumber":3,"parameterNumberName":"V-component_of_WINDS"},"data":[0,0,0,0,0,0,0,0,0,0,0,0,0,0,0,0,0,0,0,0,0,0,0,0,0,0,0,0,0,0,0,0,0,0,0,0,0,0,0,0,0,0,0,0,0,0,0,0,0,0,0,0,0,0,0,0,0,0,-0.8997,-0.8998,0,-0.9049,-0.905,-0.9051,-0.9041,-0.9041,-0.904,-0.9039,-0.9094,-0.9097,-0.9099,0,0,0,0,0,0,0,0,0,0,0,0,0,-0.8889,-0.8891,-0.8997,-0.8998,-0.8998,-0.9049,-0.905,-0.9051,-0.9042,-0.904,-0.9039,-0.9038,-0.9094,-0.9096,-0.9099,0,0,0,0,0,0,0,0,0,0,0,0,0,-0.8938,-0.8892,-0.8997,-0.9,-0.9001,-0.9049,-0.905,-0.9051,-0.9042,-0.904,-0.9039,-0.9038,-0.9093,-0.9096,-0.91,-0.9149,0,0,-0.911,-0.9112,0,0,0,0,0,0,0,0,-0.8935,-0.8942,-0.8999,-0.9,-0.9001,-0.9037,-0.9032,-0.9084,-0.9042,-0.9026,-0.9039,-0.9037,-0.9077,-0.9081,-0.9094,-0.9152,-0.9154,-0.9111,-0.9113,-0.9114,-0.9115,0,0,0,0,0,0,0,-0.8932,-0.894,-0.9018,-0.9,-0.9001,-0.8999,-0.9004,-0.9042,-0.9059,-0.9028,-0.9027,-0.9033,-0.9077,-0.9091,-0.9096,-0.9155,-0.9111,-0.9114,-0.9116,-0.9117,-0.9254,-0.9255,0,0,0,0,0,0,-0.8928,-0.8937,-0.9016,-0.9019,-0.8964,-0.9002,-0.9008,-0.9027,-0.9058,-0.9062,-0.9034,-0.9033,-0.9086,-0.9092,-0.9098,-0.9157,-0.9114,-0.9118,-0.912,-0.9252,-0.9254,-0.9256,0,0,0,0,0,0,-0.8925,-0.8935,-0.9014,-0.8978,-0.8988,-0.9005,-0.9027,-0.9029,-0.9043,-0.9063,-0.9066,-0.9046,-0.9085,-0.9093,-0.9136,-0.9158,-0.9119,-0.9122,-0.925,-0.9253,-0.9255,-0.9276,0,0,0,0,0,0,-0.8922,-0.8934,-0.8953,-0.8979,-0.899,-0.9052,-0.9028,-0.9031,-0.9049,-0.9047,-0.9075,-0.9078,-0.9084,-0.9131,-0.9139,-0.9163,-0.9125,-0.9248,-0.9251,-0.9254,-0.9273,-0.9279,-0.9283,0,0,0,0,0,-0.8918,-0.8958,-0.8954,-0.8964,-0.9014,-0.9053,-0.9059,-0.9065,-0.9051,-0.907,-0.9083,-0.9077,-0.9154,-0.9135,-0.9145,-0.917,-0.9247,-0.9251,-0.9254,-0.9271,-0.9277,-0.9283,0,0,0,0,0,0,-0.8936,-0.8961,-0.8958,-0.9007,-0.9027,-0.9051,-0.9076,-0.9072,-0.9099,-0.9096,-0.9102,-0.9109,-0.9152,-0.9165,-0.9143,-0.9218,-0.9199,-0.9204,-0.9208,-0.9215,-0.9219,-0.9216,-0.9128,0,0,0,0,0,-0.8946,-0.8974,-0.8995,-0.9036,-0.9047,-0.9059,-0.9077,-0.9079,-0.9101,-0.911,-0.9126,-0.9149,-0.9177,-0.9197,-0.9225,-0.9274,-0.928,-0.9296,-0.9301,-0.9305,-0.931,-0.9336,-0.9343,-0.9267,-0.9267,-0.9267,0,0,-0.8966,-0.8983,-0.9001,-0.904,-0.9057,-0.9086,-0.9067,-0.91,-0.9122,-0.9116,-0.9157,-0.9169,-0.9194,-0.924,-0.9262,-0.9253,-0.9332,-0.9309,-0.9312,-0.9315,-0.934,-0.9347,-0.9353,-0.9269,-0.9269,-0.9268,0,0,-0.9018,-0.9034,-0.9069,-0.9085,-0.911,-0.9118,-0.9126,-0.915,-0.9157,-0.9199,-0.9194,-0.922,-0.927,-0.9288,-0.9303,-0.9359,-0.9354,-0.9368,-0.9394,-0.9419,-0.9425,-0.943,-0.9449,-0.9456,-0.9372,-0.9372,-0.9372,0,-0.904,-0.9084,-0.9088,-0.912,-0.9137,-0.9131,-0.9166,-0.9182,-0.9215,-0.9227,-0.9216,-0.9277,-0.9294,-0.9343,-0.9356,-0.9369,-0.9379,-0.9365,-0.9424,-0.9429,-0.9434,-0.9452,-0.9459,-0.9374,-0.9374,-0.9373,-0.9373,0,-0.911,-0.914,-0.9166,-0.9196,-0.9216,-0.925,-0.9258,-0.9277,-0.9277,-0.9286,-0.9327,-0.9346,-0.9377,-0.9389,-0.939,-0.9438,-0.9431,-0.9422,-0.9403,-0.9443,-0.946,-0.9467,-0.9376,-0.9375,-0.9375,-0.9375,0,0,-0.9177,-0.9206,-0.9216,-0.9228,-0.9254,-0.9278,-0.931,-0.9339,-0.9355,-0.9378,-0.9405,-0.9446,-0.9437,-0.9454,-0.9457,-0.9479,-0.952,-0.9466,-0.9467,-0.9475,-0.9573,-0.958,-0.9588,-0.9517,-0.9518,-0.9519,-0.9571,0,-0.9231,-0.9288,-0.9291,-0.9343,-0.9371,-0.9364,-0.9392,-0.9411,-0.9419,-0.9444,-0.9453,-0.9482,-0.9468,-0.9478,-0.9499,-0.951,-0.954,-0.9507,-0.9542,-0.9544,-0.9537,-0.9597,-0.9606,-0.9654,-0.9578,-0.9579,-0.958,0,-0.9302,-0.9324,-0.9379,-0.9398,-0.941,-0.9436,-0.9461,-0.9485,-0.9505,-0.9509,-0.9527,-0.9526,-0.9559,-0.9538,-0.9583,-0.956,-0.9575,-0.9582,-0.9584,-0.9588,-0.9564,-0.9603,-0.9669,-0.9676,-0.959,-0.959,-0.9589,0,-0.9344,-0.9388,-0.9426,-0.9437,-0.9461,-0.9479,-0.949,-0.9508,-0.9525,-0.9547,-0.9558,-0.9584,-0.9599,-0.9619,-0.9625,-0.9609,-0.967,-0.9649,-0.9674,-0.9674,-0.9688,-0.9687,-0.9758,-0.9697,-0.9697,-0.9697,-0.9697,0,-0.9405,-0.9438,-0.9445,-0.9469,-0.9505,-0.9508,-0.9544,-0.9554,-0.957,-0.9595,-0.9591,-0.9614,-0.962,-0.9644,-0.9649,-0.9685,-0.9692,-0.9696,-0.9697,-0.9697,-0.9696,-0.9707,-0.9704,-0.9699,-0.9698,-0.9698,-0.9698,0,-0.9459,-0.9465,-0.9506,-0.9524,-0.9529,-0.9555,-0.9571,-0.9593,-0.96,-0.9631,-0.9639,-0.965,-0.9678,-0.9685,-0.9719,-0.9722,-0.9764,-0.9762,-0.9757,-0.9757,-0.9782,-0.978,-0.9862,-0.9873,-0.9805,-0.9806,-0.9806,0,-0.9497,-0.9522,-0.9542,-0.9558,-0.9569,-0.9595,-0.9611,-0.9614,-0.9631,-0.9654,-0.9673,-0.9701,-0.9723,-0.9768,-0.9779,-0.9805,-0.9803,-0.983,-0.9807,-0.9806,-0.9803,-0.9802,-0.9804,-0.9835,-0.9836,-0.9836,-0.9837,0,-0.9564,-0.9565,-0.9588,-0.9612,-0.9631,-0.965,-0.9668,-0.9681,-0.9687,-0.9706,-0.9734,-0.9751,-0.9784,-0.9811,-0.9837,-0.9848,-0.9843,-0.9843,-0.9851,-0.9851,-0.9847,-0.9849,-0.9769,-0.9842,-0.9841,-0.9841,-0.9841,-0.9841,-0.9611,-0.9633,-0.965,-0.9675,-0.9688,-0.9705,-0.9726,-0.9734,-0.9757,-0.9784,-0.9784,-0.9815,-0.9832,-0.9866,-0.9878,-0.9902,-0.9893,-0.9904,-0.9907,-0.9909,-0.9911,-0.9842,-0.9906,-0.9906,-0.9906,-0.9906,-0.9906,0,-0.9678,-0.9687,-0.9711,-0.9735,-0.9755,-0.9747,-0.9766,-0.9783,-0.981,-0.9826,-0.9847,-0.9878,-0.9904,-0.9916,-0.9941,-0.9958,-0.9956,-0.9964,-0.9963,-0.9966,-0.9917,-0.9908,-0.9965,-0.9965,-0.9965,-0.9965,-0.9965,-0.9965,-0.9715,-0.975,-0.9753,-0.9794,-0.9804,-0.9833,-0.9844,-0.9859,-0.9872,-0.9906,-0.9927,-0.9934,-0.9949,-0.9974,-0.9997,-1.0,-1.0009,-1.0019,-1.002,-0.9975,-0.9969,-0.9964,-0.9955,-1.0021,-1.0021,-1.0067,-1.0067,-1.0068]}]]